DW4369 Weather Reports


time (UTC)temp
C
wind
direction
speed
KPH
gust
KPH
rain 1hr
cm
rain 24hr
cm
rain mn
cm
humidity
%
barometer
mb
20260906003019 29 4 8.0 16.1 0.00 0.00 0.00 79 1011.4
20260906001523 29 39 4.8 12.9 0.00 0.00 0.00 79 1011.3
20260906000033 29 28 3.2 14.5 0.00 0.00 0.00 79 1011.5
20260905234518 30 32 1.6 6.4 0.00 0.00 0.00 79 1011.4
20260905233032 30 51 3.2 9.7 0.00 0.00 0.00 77 1011.4
20260905231555 31 339 1.6 12.9 0.00 0.00 0.00 75 1011.3
20260905230030 31 16 3.2 9.7 0.00 0.00 0.00 75 1011.2
20260905224520 31 39 1.6 14.5 0.00 0.00 0.00 76 1011.1
20260905223033 31 26 3.2 11.3 0.00 0.00 0.00 73 1011.1
20260905221517 32 305 1.6 8.0 0.00 0.00 0.00 75 1011.1
20260905220045 32 34 3.2 14.5 0.00 0.00 0.00 74 1011.1
20260905214534 32 34 3.2 14.5 0.00 0.00 0.00 75 1011.0
20260905213022 32 40 1.6 6.4 0.00 0.00 0.00 74 1011.1
20260905211532 32 297 1.6 4.8 0.00 0.00 0.00 74 1011.2
20260905210014 32 303 0.0 8.0 0.00 0.00 0.00 75 1011.3
20260905204528 32 41 3.2 8.0 0.00 0.00 0.00 72 1011.4
20260905203029 32 64 6.4 14.5 0.00 0.00 0.00 70 1011.4
20260905201517 32 124 1.6 9.7 0.00 0.00 0.00 68 1011.3
20260905200026 32 22 4.8 17.7 0.00 0.00 0.00 70 1011.4
20260905194517 33 309 1.6 9.7 0.00 0.00 0.00 69 1011.4
20260905193031 33 285 1.6 8.0 0.00 0.00 0.00 68 1011.5
20260905191541 33 349 0.0 8.0 0.00 0.00 0.00 70 1011.7
20260905190031 33 320 1.6 9.7 0.00 0.00 0.00 68 1011.8
20260905184523 33 277 1.6 8.0 0.00 0.00 0.00 69 1012.0
20260905183032 33 294 1.6 8.0 0.00 0.00 0.00 67 1012.0
20260905181527 33 119 3.2 8.0 0.00 0.00 0.00 67 1012.1
20260905180038 33 274 1.6 6.4 0.00 0.00 0.00 68 1012.3
20260905174518 33 269 0.0 3.2 0.00 0.00 0.00 67 1012.4
20260905173029 33 271 1.6 4.8 0.00 0.00 0.00 67 1012.4
20260905171558 33 295 1.6 8.0 0.00 0.00 0.00 69 1012.4
20260905170022 33 358 3.2 9.7 0.00 0.00 0.00 67 1012.5
20260905164527 33 277 1.6 8.0 0.00 0.00 0.00 70 1012.7
20260905163022 33 210 1.6 6.4 0.00 0.00 0.00 68 1012.6
20260905161550 33 201 1.6 4.8 0.00 0.00 0.00 69 1012.7
20260905160041 33 201 0.0 0.0 0.00 0.00 0.00 72 1012.7
20260905154525 33 202 0.0 0.0 0.00 0.00 0.00 69 1012.6
20260905153018 32 201 0.0 0.0 0.00 0.00 0.00 71 1012.7
20260905151529 32 201 0.0 0.0 0.00 0.00 0.00 71 1012.6
20260905150024 32 201 0.0 0.0 0.00 0.00 0.00 73 1012.5
20260905144527 32 201 0.0 0.0 0.00 0.00 0.00 74 1012.3
20260905143031 31 201 0.0 0.0 0.00 0.00 0.00 76 1012.5
20260905141537 30 201 0.0 0.0 0.00 0.00 0.00 79 1012.4
20260905140016 29 201 0.0 0.0 0.00 0.00 0.00 80 1012.7
20260905134516 29 201 0.0 0.0 0.00 0.00 0.00 81 1012.6
20260905133045 28 201 0.0 0.0 0.00 0.00 0.00 85 1012.5
20260905131553 27 201 0.0 0.0 0.00 0.00 0.00 88 1012.5
20260905130023 26 201 0.0 0.0 0.00 0.00 0.00 88 1012.3
20260905124532 25 201 0.0 0.0 0.00 0.00 0.00 88 1012.3
20260905123025 25 201 0.0 0.0 0.00 0.00 0.00 89 1012.2
20260905121554 24 201 0.0 0.0 0.00 0.00 0.00 89 1012.1
20260905120027 23 201 0.0 0.0 0.00 0.00 0.00 88 1012.0
20260905114521 23 201 0.0 0.0 0.00 0.00 0.00 88 1012.0
20260905113026 23 202 0.0 0.0 0.00 0.00 0.00 87 1011.9
20260905111528 23 201 0.0 0.0 0.00 0.00 0.00 88 1011.8
20260905110030 23 201 0.0 0.0 0.00 0.00 0.00 88 1011.9
20260905104517 23 201 0.0 0.0 0.00 0.00 0.00 89 1011.9
20260905103029 24 201 0.0 0.0 0.00 0.00 0.00 89 1012.0
20260905101530 24 201 0.0 0.0 0.00 0.00 0.00 89 1011.9
20260905100021 25 201 0.0 0.0 0.00 0.00 0.00 89 1011.8
20260905094523 24 201 0.0 0.0 0.00 0.00 0.00 89 1011.7
20260905093032 24 201 0.0 0.0 0.00 0.00 0.00 89 1011.6
20260905091515 24 201 0.0 0.0 0.00 0.00 0.00 89 1011.7
20260905090029 25 201 0.0 0.0 0.00 0.00 0.00 89 1011.6
20260905084527 25 201 0.0 0.0 0.00 0.00 0.00 89 1011.6
20260905083019 25 201 0.0 0.0 0.00 0.00 0.00 89 1011.7
20260905081528 25 201 0.0 0.0 0.00 0.00 0.00 89 1011.7
20260905080021 24 201 0.0 0.0 0.00 0.00 0.00 86 1011.8
20260905074513 24 201 0.0 0.0 0.00 0.00 0.00 84 1011.9
20260905073047 24 201 0.0 0.0 0.00 0.00 0.00 84 1011.9
20260905071530 24 201 0.0 0.0 0.00 0.00 0.00 84 1012.1
20260905070041 24 201 0.0 0.0 0.00 0.00 0.00 84 1012.2
20260905064610 24 201 0.0 0.0 0.00 0.00 0.00 85 1012.2
20260905063016 24 201 0.0 0.0 0.00 0.00 0.00 86 1012.2
20260905061525 24 201 0.0 0.0 0.00 0.00 0.00 87 1012.3
20260905060024 24 201 0.0 0.0 0.00 0.00 0.00 87 1012.3
20260905054538 24 201 0.0 0.0 0.00 0.00 0.00 88 1012.3
20260905053017 25 201 0.0 0.0 0.00 0.00 0.00 88 1012.3
20260905051525 25 201 0.0 0.0 0.00 0.00 0.00 88 1012.3
20260905050051 25 201 0.0 0.0 0.00 0.00 0.00 89 1012.4
20260905044535 25 201 0.0 0.0 0.00 0.00 0.00 89 1012.3
20260905043017 25 201 0.0 0.0 0.00 0.00 0.00 89 1012.3
20260905041522 25 201 0.0 0.0 0.00 0.00 0.00 89 1012.3
20260905040033 26 202 0.0 0.0 0.00 0.00 0.00 89 1012.4
20260905034532 26 201 0.0 0.0 0.00 0.00 0.00 89 1012.4
20260905033025 26 201 0.0 0.0 0.00 0.00 0.00 89 1012.5
20260905031528 26 201 0.0 0.0 0.00 0.00 0.00 89 1012.3
20260905030040 26 201 0.0 0.0 0.00 0.00 0.00 89 1012.4
20260905024525 26 201 0.0 0.0 0.00 0.00 0.00 89 1012.4
20260905023029 26 201 0.0 0.0 0.00 0.00 0.00 88 1012.2
20260905021514 27 201 0.0 0.0 0.00 0.00 0.00 87 1012.1
20260905020040 27 201 0.0 0.0 0.00 0.00 0.00 87 1011.8
20260905014516 27 201 0.0 0.0 0.00 0.00 0.00 85 1011.6
20260905013023 28 201 0.0 0.0 0.00 0.00 0.00 83 1011.7
20260905011552 28 201 0.0 0.0 0.00 0.00 0.00 83 1011.5
20260905004524 30 201 0.0 0.0 0.00 0.00 0.00 80 1011.4